Regional Weather Roundup
Issued by NWS Goodland, KS

Home | Current Version | Previous Version | Text Only | Print | Product List | Glossary On
Versions: 1 2 3 4 5 6 7 8 9 10 11 12 13 14 15 16 17 18 19 20 21 22 23 24 25 26 27 28 29 30 31 32 33 34 35 36 37 38 39 40 41 42 43 44 45 46 47 48 49 50
000
ASUS43 KGLD 231759
RWRGLD

GOODLAND FORECAST AREA HOURLY WEATHER ROUNDUP
NATIONAL WEATHER SERVICE GOODLAND KS
1200 PM MDT THU OCT 23 2014

...OFFICIAL OBSERVATIONS...

CITY           SKY/WX    TMP DP  RH WIND       PRES   REMARKS
GOODLAND KS    SUNNY     71  44  37 S10       30.13F
HILL CITY KS   CLOUDY    61  58  90 SW8       30.12F
IMPERIAL NEB   MOSUNNY   72  43  35 SW14      30.09F
MCCOOK NEB     MOSUNNY   66  51  58 MISG      30.10F
AKRON CO       PTSUNNY   64  42  44 SW7       30.14F
BURLINGTON CO  SUNNY     70  44  39 S8        30.15F
LIMON CO       SUNNY     67  29  24 W7        30.18F
$$

...UNOFFICIAL OBSERVATIONS...

CITY           SKY/WX    TMP DP  RH WIND       PRES   REMARKS
COLBY KS       SUNNY     66  55  68 SE9       30.13
GOVE KS          N/A     62  32  32 MISG        N/A
NORTON KS      PTSUNNY   57  55  94 S5        30.10
SHARON SPRINGS   N/A     67  58  72 S7          N/A
TRIBUNE KS     SUNNY     63  61  94 SE8       30.16F
TRENTON NEB      N/A     70  32  24 SW7         N/A
KIT CARSON CO    N/A     68  46  44 CALM        N/A
YUMA CO          N/A     66  43  44 S7          N/A
$$



USA.gov is the U.S. government's official web portal to all federal, state and local government web resources and services.